Simultaneous Nadir Overpasses (SNOs) Predictions

Prediction of SNOs between LANDSAT-8 and METOP-A Satellite Orbit:

Table of predicted SNOs for the next 14.0 days since TLE Epoch: 2/14/2014
Index Date (LANDSAT-8) Time (LANDSAT-8) Lat,Lon (LANDSAT-8) SZA (LANDSAT-8 ) Date (METOP-A) Time (METOP-A) Lat,Lon (METOP-A) SZA (METOP-A ) Distance(km) Time Diff (sec)
1 02/16/2014 05:59:33 -81.19, -49.19 84.76 02/16/2014 05:59:14 -81.19, -49.06 84.75 2.20 19
2 02/16/2014 06:48:59 81.20, 118.61 95.26 02/16/2014 06:49:54 81.20, 118.62 95.28 0.28 55
3 02/19/2014 01:33:51 -81.19, 17.23 85.74 02/19/2014 01:33:35 -81.19, 17.34 85.73 1.88 16
4 02/19/2014 02:23:17 81.20,-174.98 94.28 02/19/2014 02:24:15 81.20,-175.02 94.30 0.75 58
5 02/21/2014 21:08:14 -81.18, 83.36 86.78 02/21/2014 21:07:58 -81.18, 83.29 86.79 1.21 16
6
